sat.trackr.live / text

‹ back to catalog

STARLINK-6088

NORAD 56098 · 2023-046F

PAYLOAD ACTIVE UNKNOWN

§ Identity

Operator
Country
US
Launch date
2023-03-29
Launch site
AFETR
Launch vehicle
Mass (kg)
RCS (m²)

Purposes: comms

External: N2YO · Heavens-Above · Gunter

§ Orbital elements

Epoch: 2026-05-25T04:30:16.460064Z

Period
94.27 min
Inclination
43.0050°
Eccentricity
0.0001437
Mean motion
15.27574651 rev/d
Perigee alt
482.1 km
Apogee alt
484.1 km
Semi-major
6,861.2 km
B*
8.0825e-6
RAAN
89.3054°
Arg perigee
264.1162°
Mean anomaly
95.9526°
Rev number
17,372

§ Raw data

STARLINK-60881 56098U 23046F   26145.18769051 -.00000040  00000+0  80825-5 0  99902 56098  43.0050  89.3054 0001437 264.1162  95.9526 15.27574651173727

JSON: /api/v1/satellites/56098 · /tle

For live sub-satellite position, see the globe view (requires WebGL).

§ Visibility from observer

Set your observer location to see the next 7 days of passes ≥ 10°. The values pass through the URL so the page stays shareable.

No JS? Fill the form by hand. The geolocation button needs JavaScript.